Wetbulb
28.76 30.32 30.31 29.16 28.45 29.18 24.10 26.62 22.97 26.85 27.29 30.37 32.40 33.06 33.82 34.31 32.60 32.71 31.88 33.02 32.67 32.74 32.62 32.92 33.40 34.60 35.50 36.32 37.23 37.82 37.64 37.72 38.11 39.21 39.91 40.21 40.15 40.51 41.41 42.20 43.06 44.20 45.61 47.49
26.65 29.41 28.48 27.96 29.24 29.55 29.36 29.45 28.82 28.41 28.47 33.02 33.46 34.08 34.07 32.56 32.62 31.38 31.15 32.26 32.97 33.36 32.82 32.60 31.98 33.57 34.61 34.92 35.55 36.42 36.11 36.50 38.08 38.73 38.58 38.01 38.21 38.49 39.10 39.76 40.40 41.18 41.97 43.23
22.62 26.15 26.22 23.07 26.91 28.72 28.89 30.54 30.67 26.87 30.67 32.55 32.32 34.50 34.46 33.92 33.58 30.89 30.31 31.51 31.69 32.18 32.46 32.63 33.08 33.82 33.27 33.97 35.04 34.95 35.32 36.39 37.25 37.52 36.58 36.59 37.36 37.38 37.26 37.33 38.03 38.25 39.03 40.21
20.95 22.19 13.82 26.01 30.68 30.45 30.16 31.33 32.72 32.14 32.83 33.37 33.77 33.80 32.99 33.16 32.57 30.41 31.21 31.52 31.80 31.90 32.12 32.72 33.40 33.19 33.38 33.60 33.46 34.13 34.52 34.87 35.17 34.95 35.01 36.21 36.22 36.39 36.73 37.02 36.39 36.62 37.34 38.17
19.75 17.82 23.01 24.54 29.23 29.71 28.88 28.75 33.45 33.13 33.30 34.12 33.57 31.37 31.06 31.67 30.64 30.95 30.41 32.10 32.36 32.19 32.26 31.86 31.80 31.96 31.95 31.76 31.95 32.44 32.33 32.88 33.60 33.93 33.89 34.70 34.55 34.37 34.94 35.15 35.93 36.47 37.14 37.73
22.09 18.29 18.20 24.72 29.80 33.12 30.58 23.49 31.02 34.65 33.60 33.10 31.63 26.37 27.31 30.09 31.21 31.33 32.19 32.54 32.13 32.30 32.31 30.76 30.44 30.94 30.87 30.56 30.77 31.35 32.18 32.38 33.31 33.53 32.93 33.15 33.39 33.10 33.94 34.20 34.37 35.28 36.10 38.02
22.31 19.78 24.07 28.02 32.55 32.79 21.15 25.71 31.10 34.54 33.94 32.37 30.09 30.56 30.63 30.81 30.62 31.38 31.61 31.74 31.83 30.28 29.56 30.07 30.71 31.14 30.93 30.72 30.73 32.56 33.07 32.84 32.68 32.81 32.19 32.14 33.06 33.11 32.99 33.01 33.35 33.79 34.65 36.98
22.23 19.87 18.69 32.24 31.38 28.03 30.17 31.25 33.18 34.36 34.10 33.21 31.92 30.01 29.91 30.81 30.91 31.39 31.07 31.25 32.07 30.66 30.04 30.56 31.17 31.43 30.86 30.71 32.36 33.29 32.91 32.33 32.09 32.18 32.33 32.44 31.76 32.13 32.49 32.38 31.94 31.84 32.43 34.37
26.16 26.02 31.72 33.31 32.70 34.02 33.45 34.51 33.49 34.53 34.44 34.33 31.61 30.54 30.98 30.22 28.86 30.12 30.74 30.77 31.43 29.96 29.84 30.46 30.78 30.92 29.91 31.23 31.79 31.91 31.87 30.57 31.84 32.29 31.96 31.99 31.55 30.89 30.32 30.76 30.55 30.98 31.05 31.74
28.67 29.23 30.30 33.16 35.32 34.17 34.60 34.98 35.42 34.90 34.22 33.23 31.73 30.78 29.79 29.93 29.70 29.66 29.80 29.64 29.59 29.18 28.63 28.39 29.36 29.93 29.53 29.96 31.86 30.08 28.64 30.68 30.76 30.19 30.38 30.03 30.40 30.87 30.49 30.40 30.51 30.92 30.91 31.02
27.63 31.13 31.41 33.59 33.48 35.40 35.45 35.51 34.76 34.00 33.76 33.09 31.23 29.32 29.42 29.19 29.19 29.44 28.92 29.08 29.11 28.64 28.31 28.28 28.73 28.56 29.00 29.36 29.90 27.90 28.74 29.34 29.43 29.71 29.26 29.50 30.50 30.73 30.93 31.85 32.43 31.75 32.69 33.42
29.68 32.71 32.90 32.03 32.96 33.75 34.81 34.92 34.86 33.26 31.23 31.25 31.16 30.28 30.37 29.12 29.30 29.09 28.65 28.63 28.70 28.59 28.46 28.11 28.21 28.25 28.86 29.23 28.54 27.43 28.17 28.93 29.16 29.74 29.74 29.53 29.45 29.41 33.19 33.74 34.76 35.17 36.42 35.62
34.51 32.74 32.80 33.46 34.56 34.09 34.61 34.86 34.52 33.10 32.06 30.51 30.15 30.24 29.57 28.72 28.72 30.78 29.31 29.46 28.83 28.92 28.66 27.41 27.33 27.49 28.46 28.92 28.50 28.64 29.24 29.01 29.17 29.69 29.04 28.65 28.52 28.01 26.93 30.14 33.71 34.92 35.76 35.97
34.27 32.03 32.38 34.13 35.08 35.45 34.84 34.44 36.70 31.81 31.09 30.85 30.62 29.95 29.50 28.87 28.62 29.47 28.99 29.52 29.49 28.98 27.78 27.24 27.67 28.06 29.50 30.97 29.77 28.76 29.88 31.53 29.67 29.37 29.34 28.67 28.38 27.48 27.40 27.54 28.11 29.77 33.93 35.30
32.84 33.07 35.51 33.34 34.46 33.77 33.30 32.06 30.92 29.97 29.40 29.19 29.74 29.48 29.01 28.45 28.54 28.42 28.82 29.29 27.96 26.88 27.08 27.23 27.20 27.82 30.94 31.18 30.09 29.55 29.67 29.70 30.15 30.27 29.31 29.09 27.83 26.98 27.12 28.03 28.59 29.48 30.90 33.77
34.05 32.80 31.81 32.95 34.11 33.46 31.79 30.60 29.96 28.85 28.75 28.71 28.74 28.57 28.93 28.43 28.27 28.13 28.80 27.50 25.81 26.16 27.26 26.98 26.39 26.68 29.37 31.75 30.37 30.38 30.25 31.41 31.78 30.05 28.22 27.28 27.20 26.97 27.17 27.04 27.55 28.74 29.37 30.98
30.02 30.38 29.54 30.25 31.75 31.29 31.34 32.37 32.93 30.51 28.47 27.76 27.98 28.78 29.25 28.98 28.14 26.94 25.86 25.96 26.60 26.13 25.88 25.19 24.13 26.26 28.50 30.40 30.67 30.72 30.67 30.94 32.74 29.79 27.52 27.16 26.67 27.46 26.43 26.62 26.97 27.86 29.21 31.39
32.68 34.45 33.77 33.12 32.68 32.18 29.64 29.96 30.08 29.49 28.49 28.38 28.92 28.61 27.90 27.30 26.41 25.19 24.35 24.27 24.34 23.34 24.68 25.51 26.69 29.61 27.68 26.61 28.48 31.06 31.57 31.71 29.44 28.30 27.44 26.59 26.87 26.35 26.27 25.64 26.22 27.05 28.49 29.96
31.59 31.29 32.40 32.91 33.23 33.17 32.07 30.48 29.25 28.76 29.02 29.25 27.98 26.15 25.87 24.11 23.01 22.69 22.37 21.13 20.87 22.52 25.38 26.76 29.30 28.09 26.43 27.16 30.85 31.26 30.68 29.84 25.36 26.92 26.91 27.51 26.05 25.84 25.73 25.04 25.53 26.65 27.53 28.16
30.60 30.52 31.68 31.01 31.40 31.03 29.55 29.60 29.52 28.90 28.60 27.72 26.13 24.11 23.06 23.00 23.00 22.23 20.20 21.93 22.28 23.08 26.05 27.23 27.68 27.66 27.79 28.42 31.62 27.99 28.34 29.28 26.18 24.79 25.69 26.35 24.78 25.65 24.51 25.28 24.79 26.36 26.87 27.17
28.69 29.37 28.20 28.98 28.73 29.60 29.60 29.17 28.56 27.03 26.00 25.90 24.31 23.41 23.32 23.66 23.75 23.43 21.63 21.71 23.53 24.83 26.73 26.70 24.71 26.29 28.18 28.92 25.21 24.06 27.26 22.91 22.64 22.79 24.48 24.21 24.41 24.95 24.19 23.69 23.45 24.45 26.01 26.14
26.99 27.90 28.05 28.14 27.46 26.66 26.98 27.66 26.82 25.06 24.56 24.35 24.39 24.08 23.06 22.69 22.50 22.22 23.84 21.78 23.36 25.58 25.53 23.90 23.21 27.14 28.47 26.32 21.70 21.25 21.83 22.77 22.84 22.97 22.73 22.91 24.12 23.35 23.31 23.19 24.21 24.28 24.87 25.00
23.78 26.94 27.25 26.29 25.40 22.95 19.78 22.54 24.92 24.86 23.80 23.96 23.72 23.20 22.66 22.33 21.80 20.82 19.72 22.48 22.91 23.92 23.28 22.10 25.62 27.43 27.01 21.31 18.91 18.24 19.51 20.14 21.19 21.58 21.52 22.87 22.58 22.19 22.80 22.86 23.86 24.64 24.06 24.82
26.75 26.66 25.97 25.01 22.61 21.08 20.33 18.96 19.64 22.34 23.26 23.63 23.56 23.32 21.45 19.30 20.35 21.02 21.03 21.71 23.01 23.97 22.56 22.13 23.98 25.82 24.22 19.78 17.68 15.45 15.94 16.86 20.99 19.52 18.39 20.85 18.77 19.82 21.06 21.36 21.02 23.59 24.41 24.45
26.15 21.92 20.63 20.59 22.28 22.53 21.27 20.10 19.36 20.03 21.56 21.82 21.57 20.87 20.58 20.63 19.74 19.91 18.82 20.24 21.01 21.29 19.09 20.25 22.06 22.68 19.05 18.18 17.51 15.90 14.39 12.38 18.58 19.96 17.47 14.18 13.94 12.84 15.50 17.13 18.22 21.03 21.65 22.45
24.67 24.94 24.55 24.12 24.68 23.08 22.00 21.81 20.54 19.89 20.41 20.02 19.92 19.72 19.13 18.88 18.88 18.51 18.54 20.01 18.40 18.87 17.21 17.37 18.33 19.29 18.15 17.71 16.28 15.18 14.54 14.08 14.74 16.75 16.38 13.03 12.64 11.86 12.92 13.60 14.67 16.66 18.35 20.31
20.48 25.83 20.84 22.37 22.32 23.04 22.27 22.05 20.00 19.40 21.66 20.95 19.82 18.63 18.08 17.73 18.16 17.83 18.85 16.25 16.33 16.34 16.30 16.40 16.61 17.80 17.85 16.53 14.86 14.00 12.68 12.14 15.28 16.94 11.01 10.03 10.19 9.48 11.69 12.81 12.48 13.56 16.21 18.31
MSLP
1018.35 1017.83 1017.29 1016.66 1016.48 1016.41 1016.43 1016.40 1016.61 1016.24 1016.40 1016.15 1016.32 1016.24 1016.18 1016.26 1016.45 1016.63 1016.74 1016.86 1016.87 1016.95 1017.04 1016.92 1016.72 1016.46 1016.11 1015.63 1015.33 1014.96 1014.87 1014.67 1014.55 1014.42 1014.19 1014.07 1013.80 1013.51 1013.18 1012.74 1012.21 1011.81 1011.31 1010.77
1018.53 1017.69 1017.23 1016.66 1016.02 1016.01 1016.16 1016.34 1016.13 1016.25 1016.19 1015.48 1015.74 1015.99 1016.22 1016.42 1016.70 1016.97 1017.14 1017.31 1017.43 1017.61 1017.84 1017.77 1017.64 1017.28 1016.95 1016.62 1015.80 1015.41 1015.33 1015.31 1015.06 1014.73 1014.41 1014.04 1013.74 1013.44 1013.12 1012.71 1012.31 1011.83 1011.21 1010.68
1019.19 1018.20 1017.32 1016.47 1015.22 1015.38 1015.48 1015.63 1015.96 1016.25 1015.56 1015.51 1015.86 1016.00 1016.13 1016.42 1016.68 1017.04 1017.35 1017.65 1017.80 1017.98 1018.07 1018.09 1018.12 1017.71 1017.19 1016.75 1016.35 1015.96 1016.10 1015.82 1015.56 1015.36 1014.88 1014.43 1014.28 1014.23 1013.44 1012.81 1012.24 1011.72 1011.22 1010.69
1019.68 1018.70 1017.47 1015.12 1014.72 1014.75 1015.02 1014.86 1014.94 1015.02 1015.25 1015.37 1015.75 1016.04 1016.19 1016.30 1016.62 1017.03 1017.35 1017.73 1018.02 1018.20 1018.28 1018.20 1017.95 1017.77 1017.47 1017.14 1016.58 1016.63 1016.52 1016.29 1015.98 1015.72 1015.41 1014.95 1014.48 1014.13 1013.61 1013.12 1012.67 1011.80 1011.02 1010.53
1020.12 1019.40 1016.64 1014.78 1014.44 1014.54 1014.59 1013.72 1013.58 1014.32 1014.86 1015.47 1015.99 1016.33 1016.39 1016.41 1016.60 1016.91 1017.29 1017.65 1018.05 1018.25 1018.20 1018.20 1018.18 1017.99 1017.79 1017.40 1017.18 1017.13 1016.59 1016.24 1015.98 1015.64 1015.35 1014.91 1014.43 1014.11 1013.69 1013.08 1012.71 1012.12 1011.28 1010.51
1020.42 1019.48 1016.89 1014.39 1013.96 1013.91 1014.12 1013.83 1012.65 1013.38 1014.50 1015.36 1015.95 1016.70 1016.38 1016.37 1016.85 1017.18 1017.29 1017.64 1017.99 1018.29 1018.32 1018.32 1018.04 1017.68 1017.40 1017.30 1017.01 1016.57 1016.45 1016.44 1016.19 1015.66 1015.38 1015.00 1014.66 1014.24 1013.74 1013.15 1012.33 1011.64 1010.41 1009.72
1019.95 1018.93 1016.00 1014.15 1013.85 1013.95 1014.21 1013.49 1012.80 1013.40 1014.22 1015.19 1016.00 1015.89 1015.95 1016.28 1016.82 1017.12 1017.38 1017.43 1017.61 1018.15 1018.05 1017.59 1017.35 1017.16 1017.17 1017.18 1016.80 1016.68 1016.34 1016.11 1015.74 1015.61 1015.49 1015.09 1014.66 1013.80 1013.55 1012.70 1011.71 1010.65 1010.08 1009.23
1019.48 1018.41 1015.99 1014.20 1014.46 1014.13 1012.77 1012.70 1012.89 1013.36 1013.94 1014.71 1015.06 1015.66 1016.14 1016.60 1016.99 1017.18 1017.39 1017.16 1017.04 1017.43 1017.86 1017.97 1017.76 1017.39 1017.30 1017.24 1017.06 1016.85 1016.64 1016.32 1015.81 1015.31 1014.80 1014.40 1014.02 1013.50 1012.79 1012.04 1011.44 1010.51 1009.54 1008.23
1018.04 1015.78 1014.17 1013.87 1013.33 1012.68 1012.65 1012.73 1013.02 1013.45 1013.88 1014.36 1015.04 1015.60 1015.86 1016.16 1016.33 1016.56 1016.77 1017.18 1017.47 1017.66 1017.72 1017.57 1017.60 1017.88 1018.32 1018.08 1017.86 1017.70 1017.26 1016.75 1016.11 1015.56 1015.05 1014.58 1013.99 1013.32 1012.62 1011.85 1010.93 1009.83 1008.94 1007.87
1016.45 1013.87 1013.37 1013.05 1012.63 1012.77 1012.71 1012.84 1012.83 1013.14 1013.54 1014.01 1014.42 1014.92 1015.37 1015.61 1016.03 1016.46 1016.86 1017.35 1017.72 1017.96 1018.26 1018.39 1018.32 1018.44 1018.52 1018.19 1017.78 1017.61 1017.28 1016.69 1016.08 1015.57 1014.94 1014.25 1013.62 1012.95 1012.12 1011.35 1010.45 1009.51 1008.32 1007.24
1014.87 1013.12 1012.55 1012.12 1011.79 1011.61 1011.89 1012.34 1012.79 1013.09 1013.37 1013.82 1014.42 1014.98 1015.30 1015.85 1016.43 1016.76 1017.12 1017.45 1017.66 1017.94 1018.10 1018.20 1018.10 1018.10 1018.02 1017.82 1017.64 1017.38 1017.11 1016.48 1015.82 1015.27 1014.52 1013.65 1012.95 1012.33 1011.58 1010.81 1010.08 1008.72 1007.69 1006.71
1012.92 1011.80 1011.67 1011.16 1010.85 1011.11 1011.68 1011.86 1012.14 1012.80 1013.34 1013.73 1014.17 1014.67 1015.29 1015.92 1016.28 1016.60 1016.89 1017.19 1017.49 1017.80 1017.99 1018.06 1018.00 1017.88 1017.75 1017.53 1017.47 1016.98 1016.42 1015.95 1015.48 1014.87 1014.27 1013.66 1012.76 1011.38 1011.24 1010.25 1009.06 1007.89 1006.73 1005.64
1011.38 1010.96 1011.18 1010.95 1010.95 1011.00 1011.33 1011.54 1012.00 1012.58 1012.96 1013.57 1014.14 1014.57 1015.21 1015.88 1016.34 1016.82 1017.28 1017.60 1017.75 1017.77 1017.82 1017.86 1017.74 1017.67 1017.49 1017.19 1016.87 1016.57 1016.14 1015.66 1015.22 1014.78 1014.32 1013.69 1012.84 1011.95 1010.33 1008.70 1008.26 1006.86 1005.59 1004.47
1011.28 1011.56 1011.19 1010.81 1010.56 1010.34 1010.76 1011.25 1011.86 1012.54 1013.12 1013.59 1014.14 1014.77 1015.35 1015.92 1016.27 1016.57 1016.93 1017.17 1017.45 1017.65 1017.73 1017.72 1017.59 1017.36 1016.97 1016.72 1016.58 1016.44 1016.03 1015.57 1015.14 1014.68 1014.22 1013.60 1012.84 1011.92 1010.94 1009.45 1007.47 1005.68 1004.64 1003.71
1010.88 1010.74 1010.25 1009.93 1009.98 1010.30 1010.64 1011.21 1012.07 1012.69 1013.30 1014.02 1014.46 1015.02 1015.52 1015.94 1016.26 1016.56 1016.87 1017.14 1017.32 1017.45 1017.57 1017.65 1017.59 1017.19 1016.60 1016.37 1016.39 1016.26 1015.91 1015.29 1014.83 1014.48 1014.04 1013.53 1012.81 1011.92 1010.78 1009.42 1007.93 1006.22 1004.56 1003.13
1010.79 1010.54 1010.57 1010.61 1010.11 1010.07 1010.53 1011.06 1011.43 1012.17 1013.04 1013.92 1014.56 1015.14 1015.58 1016.02 1016.41 1016.73 1016.99 1017.28 1017.51 1017.54 1017.53 1017.58 1017.48 1017.07 1016.61 1016.25 1015.95 1015.77 1015.58 1015.03 1014.48 1014.08 1013.77 1013.16 1012.54 1011.58 1010.35 1009.34 1008.00 1006.57 1005.09 1003.71
1011.16 1010.53 1010.29 1010.18 1010.18 1010.33 1010.29 1010.20 1010.58 1011.36 1012.26 1013.08 1013.88 1014.68 1015.43 1016.05 1016.55 1016.93 1017.11 1017.27 1017.42 1017.54 1017.55 1017.49 1017.25 1016.84 1016.54 1016.29 1015.92 1015.56 1015.21 1014.74 1014.14 1013.81 1013.34 1012.88 1012.25 1011.29 1010.46 1009.45 1008.23 1006.92 1005.60 1004.31
1009.67 1009.33 1009.41 1009.39 1009.44 1009.83 1010.33 1010.70 1011.21 1011.74 1012.37 1012.83 1013.60 1014.39 1015.11 1015.75 1016.28 1016.75 1017.09 1017.25 1017.34 1017.39 1017.42 1017.34 1017.00 1016.61 1016.41 1016.08 1015.68 1015.12 1014.59 1014.25 1013.87 1013.52 1013.09 1012.65 1011.96 1011.32 1010.57 1009.71 1008.58 1007.35 1006.14 1004.87
1009.10 1008.75 1008.66 1008.46 1008.65 1009.38 1009.93 1010.48 1011.07 1011.48 1012.18 1012.87 1013.61 1014.39 1015.02 1015.52 1016.04 1016.48 1016.75 1017.10 1017.23 1017.28 1017.11 1017.00 1016.63 1016.35 1016.11 1015.80 1015.29 1014.75 1014.30 1014.03 1013.66 1013.31 1012.92 1012.46 1011.83 1011.19 1010.48 1009.91 1008.93 1007.73 1006.79 1005.71
1008.41 1008.25 1008.37 1008.93 1009.28 1009.56 1009.96 1010.80 1011.39 1012.10 1012.68 1013.14 1013.70 1014.41 1015.16 1015.68 1015.99 1016.26 1016.50 1016.71 1016.86 1017.01 1016.75 1016.48 1016.14 1016.07 1015.83 1015.44 1014.96 1014.68 1014.25 1013.87 1013.54 1013.26 1012.82 1012.32 1011.93 1011.11 1010.60 1010.09 1009.37 1008.28 1007.31 1006.55
1008.78 1008.82 1009.21 1009.35 1009.57 1010.03 1010.46 1010.92 1011.85 1012.97 1013.42 1013.75 1014.02 1014.59 1015.14 1015.53 1015.95 1016.18 1016.44 1016.68 1016.73 1016.72 1016.39 1016.28 1016.11 1015.90 1015.58 1015.33 1015.12 1014.82 1014.29 1013.97 1013.50 1013.26 1012.83 1012.47 1012.03 1011.26 1010.67 1010.21 1009.64 1008.86 1007.96 1007.24
1009.29 1009.14 1009.21 1009.51 1010.21 1010.72 1011.16 1011.42 1011.84 1012.52 1013.57 1014.24 1014.57 1014.93 1015.38 1015.89 1016.27 1016.32 1016.22 1016.44 1016.57 1016.46 1016.36 1016.40 1016.11 1015.73 1015.37 1015.43 1015.40 1015.07 1014.64 1014.15 1013.69 1013.40 1012.94 1012.59 1012.25 1011.57 1010.90 1010.53 1009.92 1009.23 1008.54 1007.92
1009.85 1009.85 1010.16 1010.45 1010.55 1011.20 1011.88 1012.24 1012.56 1012.78 1013.06 1013.74 1014.49 1014.95 1015.37 1015.76 1016.06 1016.20 1016.20 1016.33 1016.33 1016.19 1016.22 1016.09 1015.80 1015.52 1015.41 1015.68 1015.56 1015.28 1015.00 1014.47 1014.04 1013.74 1013.41 1013.06 1012.73 1012.05 1011.34 1010.94 1010.44 1009.68 1008.96 1008.35
1010.26 1010.53 1010.65 1010.74 1011.28 1011.86 1012.32 1012.65 1013.22 1013.29 1013.41 1013.74 1014.09 1014.56 1015.10 1015.69 1016.20 1016.37 1016.44 1016.41 1016.23 1016.09 1016.12 1016.01 1015.76 1015.53 1015.69 1015.84 1015.73 1015.50 1015.31 1014.83 1014.21 1014.03 1013.95 1013.57 1013.30 1012.63 1012.04 1011.52 1011.04 1010.26 1009.50 1008.93
1010.32 1010.76 1010.87 1011.51 1011.87 1011.92 1012.32 1012.83 1013.14 1013.72 1014.09 1014.24 1014.55 1014.75 1015.19 1015.57 1015.90 1016.28 1016.55 1016.54 1016.41 1016.24 1016.33 1016.08 1015.97 1015.91 1016.11 1016.09 1015.97 1015.68 1015.55 1015.11 1014.55 1014.18 1014.21 1014.15 1013.90 1013.40 1012.84 1012.20 1011.69 1011.01 1010.31 1009.65
1010.12 1010.48 1010.58 1010.64 1010.93 1011.52 1012.00 1012.48 1012.85 1013.32 1013.78 1014.36 1014.67 1014.84 1015.09 1015.52 1015.85 1016.14 1016.29 1016.25 1016.35 1016.18 1016.22 1016.02 1016.08 1016.02 1016.09 1016.12 1016.04 1015.89 1015.61 1015.22 1014.88 1014.54 1014.42 1014.33 1014.12 1013.62 1013.16 1012.66 1012.06 1011.53 1010.92 1010.25
1009.70 1009.98 1010.17 1010.53 1010.79 1011.11 1011.58 1011.80 1012.15 1012.87 1013.00 1013.55 1014.22 1014.57 1014.88 1015.22 1015.64 1015.93 1016.14 1016.18 1016.13 1016.19 1016.11 1016.00 1016.01 1015.97 1016.07 1016.15 1016.16 1016.09 1015.72 1015.41 1015.12 1014.73 1014.62 1014.46 1014.22 1013.71 1013.21 1012.75 1012.22 1011.72 1011.22 1010.62
Wind_Speed
6 8 5 4 4 6 2 3 3 4 5 6 6 6 5 4 2 5 6 6 6 7 8 8 8 8 9 8 8 8 8 8 8 7 7 8 9 9 9 8 8 8 9 9
5 4 6 6 7 4 2 1 4 5 5 6 5 4 4 3 3 4 4 6 6 6 7 6 6 6 5 5 5 6 6 7 8 9 11 11 11 11 10 10 9 11 10 10
5 6 8 7 6 5 3 4 7 6 6 5 5 6 5 5 3 3 1 1 3 5 5 5 4 5 6 7 8 8 7 6 7 8 10 12 12 13 12 12 12 11 11 10
4 5 4 7 2 2 5 7 8 4 4 7 5 2 2 1 5 4 2 1 2 2 4 5 4 6 6 6 6 6 6 5 6 7 8 11 11 12 13 13 14 14 15 13
0 2 8 3 4 6 6 8 11 9 4 6 5 3 4 5 4 4 2 2 3 3 3 3 4 5 4 3 3 2 4 7 8 9 10 12 12 13 13 13 11 12 14 16
1 1 5 5 3 4 3 7 5 9 9 8 5 1 5 6 4 4 4 4 5 5 3 3 3 2 3 4 5 10 10 9 8 9 10 13 14 15 12 12 13 12 15 14
3 4 10 5 4 4 3 8 2 7 7 9 7 6 4 5 3 3 4 5 2 3 1 5 6 7 9 8 11 11 11 12 12 10 11 9 12 12 14 15 15 15 16 14
1 3 9 5 3 7 7 1 3 6 6 8 5 6 6 7 7 6 5 1 6 7 6 5 6 7 10 10 10 12 11 14 15 15 13 12 15 13 15 14 15 16 16 14
9 8 5 8 6 5 2 2 4 6 6 8 8 7 6 4 0 3 5 4 4 6 7 7 8 7 8 9 6 9 9 11 12 13 13 13 13 14 13 14 13 14 13 13
1 5 9 11 9 6 5 6 4 4 6 7 6 7 4 2 1 2 3 4 3 6 6 6 5 5 5 6 6 6 8 10 12 13 13 11 9 11 12 11 11 12 14 15
8 13 9 13 11 11 11 7 4 5 7 8 7 5 5 4 4 3 1 1 1 3 4 6 6 6 6 6 5 6 7 9 11 11 12 14 12 11 12 12 15 15 14 13
11 9 5 7 2 4 9 11 10 8 5 5 7 8 7 5 4 2 2 1 2 4 5 6 6 6 6 5 5 5 9 8 8 9 10 11 12 15 19 26 29 30 29 23
8 5 7 6 5 3 7 9 7 9 6 8 5 5 5 4 3 4 3 3 4 5 5 5 5 5 5 5 5 6 8 9 8 10 10 11 11 12 16 19 27 27 27 28
8 2 7 6 9 6 7 6 8 5 4 6 7 4 5 4 2 3 3 2 3 3 5 5 5 6 6 4 5 6 8 15 8 8 8 10 10 13 12 14 16 14 20 24
12 10 12 3 5 5 5 8 8 8 7 6 5 6 5 5 4 3 1 0 2 4 4 5 5 7 6 3 4 6 7 7 8 7 8 12 11 12 12 14 14 14 14 17
9 7 7 9 8 7 8 8 8 9 8 6 7 6 6 5 4 2 1 0 1 3 4 4 5 6 7 5 6 5 6 14 12 6 8 9 8 10 12 12 13 12 12 13
6 9 5 7 9 8 12 10 11 10 9 9 9 8 7 5 4 3 2 1 2 4 4 4 5 6 5 6 6 5 6 8 13 6 9 8 9 9 11 11 11 12 12 13
11 14 9 8 7 8 7 8 7 8 7 8 8 8 7 6 5 4 2 1 2 3 3 4 5 5 4 5 6 7 7 6 5 7 7 8 8 8 10 11 11 11 12 13
7 10 10 9 8 8 8 8 8 8 9 9 9 7 5 5 5 3 2 1 1 2 2 5 8 7 5 9 10 6 5 6 4 5 7 11 8 9 8 9 11 10 11 11
3 1 4 3 3 5 8 6 9 8 7 8 8 7 6 5 4 4 3 3 3 3 5 5 4 5 7 9 12 5 6 4 5 5 6 7 8 7 7 11 11 10 10 10
2 2 2 4 5 5 7 9 10 8 6 7 8 7 6 5 4 4 3 2 2 4 5 5 4 4 6 6 6 5 5 4 4 4 5 7 8 8 7 7 7 8 9 9
0 3 6 7 6 6 5 7 9 10 8 6 5 6 6 4 3 2 3 2 1 5 2 2 3 8 5 9 4 4 5 5 4 5 5 4 7 6 7 7 8 7 8 8
2 4 5 5 7 7 5 4 6 9 10 8 7 6 4 3 2 2 3 2 2 5 1 2 7 9 9 4 3 4 5 5 5 5 6 6 6 6 6 7 7 7 7 7
3 4 4 6 7 5 7 3 3 4 6 6 6 6 6 4 2 0 1 3 4 3 2 4 6 9 8 3 3 3 3 4 5 4 5 10 6 6 7 7 7 8 7 8
5 3 5 6 7 6 5 6 6 5 5 5 6 5 5 2 2 3 2 2 2 1 1 4 6 6 2 3 3 3 3 3 4 5 4 4 5 5 5 6 7 8 7 7
6 6 7 9 7 5 6 7 6 6 6 5 4 4 4 3 2 2 1 1 0 1 1 2 2 2 2 3 3 4 3 4 4 5 6 5 5 5 5 5 6 6 7 6
3 7 4 4 4 5 7 8 7 7 8 6 5 5 5 4 4 3 4 2 1 1 0 1 1 3 2 2 3 3 3 3 6 5 3 4 4 4 5 5 5 5 6 6
Wind_Direction
263 257 275 278 306 1 79 183 160 210 188 233 214 194 183 164 96 47 30 24 22 19 9 7 2 5 5 9 7 8 9 12 10 2 5 358 352 345 335 331 329 327 322 314
286 324 333 292 298 326 24 129 47 126 254 206 206 182 186 190 115 58 33 17 8 8 356 354 348 354 339 324 352 7 6 2 0 1 354 348 343 341 336 331 328 325 322 315
274 342 327 314 232 209 260 196 152 200 246 162 196 211 208 211 178 161 146 1 16 7 348 341 345 336 339 338 342 354 346 350 353 347 341 343 337 329 331 330 326 320 310 303
272 358 358 243 282 232 231 255 216 249 208 191 191 168 158 226 174 179 213 283 329 293 305 323 331 312 304 316 344 346 356 344 341 340 336 335 332 329 322 319 316 316 312 304
326 242 280 274 212 191 182 279 198 203 181 177 132 130 253 187 164 174 227 262 250 244 241 263 267 293 303 340 338 314 351 355 351 344 338 337 334 329 323 314 304 295 297 294
145 255 244 239 188 184 128 289 239 162 170 160 118 156 255 181 179 221 229 215 217 231 230 226 284 306 28 12 5 9 359 343 335 342 339 333 327 322 315 310 304 303 297 292
211 252 284 244 182 164 116 242 229 172 163 154 183 196 180 150 196 222 227 224 197 203 154 12 358 12 12 358 5 347 343 338 339 336 326 315 313 317 312 308 308 307 298 294
130 256 293 154 81 174 219 228 205 167 179 181 170 161 172 183 192 191 192 45 28 25 14 350 1 8 356 350 343 340 336 336 326 324 325 326 323 316 315 314 304 303 303 298
186 222 239 216 229 252 200 206 207 181 186 176 169 192 178 192 266 13 26 5 6 15 354 350 360 9 339 310 325 317 315 313 304 312 313 309 306 307 306 309 307 306 304 301
331 240 225 232 244 240 220 230 216 200 177 172 175 172 175 144 35 7 359 356 14 7 334 308 308 304 269 288 308 307 297 294 312 309 306 307 305 313 309 304 300 296 298 298
260 279 276 255 229 232 216 213 209 181 178 184 159 186 179 189 207 212 241 309 32 303 302 299 311 297 292 283 289 293 286 307 318 320 319 319 314 313 310 300 297 300 294 290
228 222 209 254 269 207 200 202 199 173 165 175 174 177 168 193 200 190 225 283 290 281 279 282 288 279 286 301 289 298 322 319 313 314 314 314 313 310 307 303 305 304 298 294
243 220 212 269 294 205 214 211 191 186 175 169 174 160 158 175 186 211 206 228 242 265 284 293 300 293 301 326 329 319 309 314 308 315 309 310 309 310 311 312 308 308 309 310
253 274 277 210 242 227 203 182 166 145 161 169 161 143 155 171 162 172 223 248 289 307 313 319 320 307 299 318 328 308 297 300 305 304 305 307 307 312 308 307 313 318 320 319
252 216 237 222 200 196 152 142 152 169 162 152 155 164 166 175 191 207 214 272 337 314 315 320 312 295 301 285 298 298 297 297 297 296 310 314 312 314 312 311 313 315 320 325
288 259 252 233 229 195 172 175 167 172 163 156 164 173 179 165 153 161 145 70 315 302 306 309 301 288 302 294 290 288 286 290 299 304 315 313 310 308 319 317 317 319 323 326
268 268 220 242 219 207 206 193 186 173 155 161 171 152 144 148 150 175 198 275 287 280 284 281 271 297 297 312 306 283 279 280 297 308 316 311 310 314 323 319 322 324 327 328
233 250 227 227 211 191 188 180 160 156 165 160 143 143 149 165 194 186 217 319 301 301 284 296 290 290 294 301 295 288 287 293 303 314 315 315 305 322 327 325 324 329 330 334
261 257 244 214 191 190 178 167 164 149 144 147 143 156 154 153 160 175 182 137 144 247 260 299 315 328 297 302 315 294 299 289 296 304 322 313 322 322 323 325 331 333 335 338
311 241 190 198 136 155 151 142 138 141 144 136 130 137 154 169 163 164 164 195 189 238 282 287 337 308 307 308 326 325 305 313 320 306 318 332 323 320 320 329 333 335 342 341
77 90 140 148 147 133 135 139 138 146 150 145 152 163 170 156 166 165 176 207 211 301 317 347 331 314 300 345 353 324 331 312 317 315 328 331 326 332 327 326 327 335 344 345
211 156 156 144 137 115 117 131 130 133 143 149 145 142 144 163 178 199 191 174 280 310 339 318 301 306 352 16 341 330 328 333 337 332 333 324 334 331 336 332 333 337 343 346
194 169 153 150 144 136 101 114 143 151 153 155 160 159 160 159 171 186 213 174 301 299 33 330 308 334 19 10 337 329 330 340 342 348 345 338 332 330 338 335 336 335 342 347
196 185 167 129 126 124 148 166 135 147 145 141 143 143 144 148 160 134 323 299 307 320 347 318 328 333 23 335 322 317 316 336 341 355 349 350 334 337 344 342 337 337 345 351
208 182 135 151 177 185 145 153 132 138 147 139 143 137 134 116 165 153 189 235 302 18 355 348 351 355 346 316 328 327 314 311 329 348 350 335 328 330 330 334 334 337 342 342
187 199 196 193 190 169 163 163 171 166 157 156 159 156 150 145 170 153 186 180 259 36 24 18 334 4 353 339 349 334 331 335 348 335 350 328 317 322 321 323 327 326 326 330
198 193 161 180 186 173 177 182 160 182 175 161 172 166 157 155 179 171 191 186 185 206 21 35 8 351 351 357 338 332 320 332 347 348 331 310 307 304 314 312 308 310 315 320